Terminal Aerodrome Forecast
Issued by NWS

Home | Current Version | Previous Version | Text Only | Print | Product List | Glossary On
Versions: 1 2 3 4 5 6 7 8 9 10 11 12 13 14 15 16 17 18 19 20 21 22 23 24 25 26 27 28 29 30 31 32 33 34 35 36 37 38 39 40 41 42 43 44
000
FTUS43 KGLD 191751
TAFMCK
TAF
KMCK 191751Z 1918/2018 21015G25KT P6SM SKC
     FM200000 19008KT P6SM SKC
     FM201100 31005KT P6SM SCT120
     FM201500 02007KT P6SM SCT030 BKN110=

USA.gov is the U.S. government's official web portal to all federal, state and local government web resources and services.